Location: Hylvaty SDH
(49.9612°N, 16.4057°E)
Time: 04:03:21
(UTC+01:00)

Tiros 1 despin weight - Pass Details

Date: 21 January 2021
Orbit: 593 x 642 km, 48.2° (Epoch: 24 February)

Event Time Altitude Azimuth Distance (km) Brightness Sun altitude
Rises 20:30:29 0° 280° (W) 2,843 ? -38.0°
Reaches altitude 10° 20:32:58 10° 271° (W) 1,932 ? -38.4°
Enters shadow 20:33:09 11° 269° (W) 1,866 ? -38.4°
